STARLINK-35686, 66407

Orbit data source: Space-Track

STARLINK-35686, 66407 is a payload satellite owned by SpaceX/Seattle (US) in LEO that was launched on Sat, 08 Nov 2025 UTC via an FALCON 9 launch vehicle from the Air Force Eastern Test Range (AFETR). Payload-class satellites include a variety of spacecraft equipped with specific instruments for various scientific and technological missions. These include communications satellites like Starlink; space stations such as the ISS; scientific satellites like the Hubble; Earth observation satellites from companies like Planet Labs, Umbra, and HawkEye 360; GPS; miniature CubeSats for education and research; and military/defense satellites.

Loading next visibility...
Identifier
66407, 2025-257AD
Orbit
LEO
Country
Flag of USUS
Related business
Manufacturer
SpaceX/Seattle
Mission
Operational Commercial Communications
Bus & Motor
STARLINK V2MO, Unknown motor
Mass
575 kg wet, ~530 kg dry
Launch date (UTC)
2025-11-08 (7 months ago)
Launch vehicle
FALCON 9
Launch site
Air Force Eastern Test Range (AFETR)
Object type
Payload
Rocket body
Debris
Shape & HBR
Box + 2 Pan, 17.7 m
Radar Cross Section
36.964 m², Large (>1 m²)

Expand to show TLE details & history
Last TLE update: 22 hours ago

TLE from 22 hours ago
0 STARLINK-35686
1 66407U 25257AD  26170.94280952  .00023417  00000-0  70190-3 0  9996
2 66407  53.1591 100.3080 0001343  90.1531 269.9626 15.34405413 35414
Epoch: 2026-06-19T22:37Z
TLE epoch observation values (Epoch: 2026-06-19T22:37:38.742Z)
Latitude
0.00002°
Longitude
-147.26795°
Altitude
463.589 km
Speed
7.636 km/s
True Right ascension
06h 41m 13s
True Declination
0° 00' 00"
Sunlit
Object was in daylight at epoch
Visualization orbit readout
Latitude
Unknown
Longitude
Unknown
Altitude
Unknown
Speed
Unknown
Apparent Right ascension
Unknown
Apparent Declination
Unknown
Sunlit
N/A
Visualization observer readout
Local Sidereal Time
07:16:45
Azimuth
Unknown
Elevation
Unknown
Doppler factor
Unknown
Orbital elements
Apogee altitude
463.863 km
Perigee altitude
462.025 km
Semi-major axis
6,841.081 km
Eccentricity
0.00013
Inclination
53.1591°
RAAN
100.308°
Arg. of periapsis
90.1531°
True anomaly
269.94721°
Mean anomaly
269.9626°
Eccentric anomaly
269.95491°
Mean motion
3.8358 °/min
Orbital period
93.85 mins
BSTAR
0.0007019
Loading maneuver chart data...
Computing Atmospheric mass density...
Loading historical data...
Loading historical data...
Loading historical data...
Loading historical data...
Loading historical data...
Loading historical data...
Loading historical data...

Documentation

Showing up to 5 results
|